Temperature
5 4 4 4 5 5 5 5 5 6 7 7 6 7 7 8 8 8 8 9 9 10 11 11 12 12 12 12 12 12 12 12 12 12 12 12 12 12 12 13 13 13 13 13
4 4 5 6 6 6 5 5 5 6 7 7 6 6 7 7 7 8 8 8 9 9 10 11 11 11 11 12 12 12 12 12 12 12 12 12 12 12 12 12 12 13 13 13
4 5 7 6 6 6 6 5 5 6 6 7 6 6 7 7 8 8 8 8 8 9 9 10 11 11 11 11 11 11 12 12 12 12 12 12 12 12 12 12 12 12 12 13
5 6 6 6 6 6 5 6 7 7 6 6 6 6 6 7 7 7 7 8 8 8 9 9 10 10 11 11 11 11 11 11 11 12 11 11 11 11 12 12 12 12 12 12
5 6 6 6 6 6 6 7 7 7 6 6 6 5 6 6 7 7 7 7 7 8 8 9 9 10 10 10 10 11 11 11 11 11 11 11 11 11 11 11 11 12 12 12
6 6 6 6 7 7 7 6 6 6 5 5 6 6 6 6 6 6 6 6 6 7 7 8 9 9 9 10 10 10 10 10 11 11 11 11 11 11 11 11 11 11 11 12
5 6 6 6 6 7 6 5 5 5 5 6 6 6 6 6 6 6 6 5 6 6 7 7 8 8 9 9 10 10 10 10 10 10 10 10 10 10 11 11 11 11 11 11
5 5 6 7 6 6 6 6 5 6 6 6 6 6 6 6 6 6 5 5 5 5 6 6 7 7 8 9 9 9 9 10 10 10 10 10 10 10 10 11 11 11 11 11
6 6 7 7 7 7 7 6 6 6 6 6 6 6 6 7 6 6 5 5 5 5 5 5 6 7 7 8 8 8 9 9 9 9 9 9 10 10 10 10 10 11 11 11
6 6 7 7 7 7 7 7 6 6 6 7 7 6 6 6 5 5 5 4 4 4 5 5 5 6 7 7 8 8 8 9 9 9 9 9 9 9 10 10 10 10 10 10
7 6 6 7 7 7 7 7 6 6 6 6 6 6 6 5 5 5 4 4 4 4 4 4 5 5 6 6 7 8 8 8 8 8 8 9 9 9 9 9 9 10 10 10
6 6 5 7 8 8 7 7 6 6 6 5 5 6 6 5 5 4 4 4 3 3 4 4 4 5 5 6 6 7 7 7 8 8 8 8 8 8 9 9 9 9 9 9
7 6 5 6 7 7 7 7 7 6 5 5 5 6 5 5 5 4 4 4 3 3 4 4 4 4 5 5 6 6 6 7 7 7 7 7 8 8 8 8 8 8 9 9
7 5 5 6 6 6 6 7 7 6 5 5 6 6 5 5 4 4 4 4 3 3 3 4 4 4 4 5 5 5 6 6 6 6 7 7 7 7 7 7 7 8 8 8
6 6 6 6 6 7 6 7 7 6 6 6 6 6 5 5 4 4 4 4 3 3 3 3 3 4 4 4 4 5 5 5 5 5 6 6 6 6 6 6 7 7 7 7
6 6 6 6 7 6 6 6 6 6 6 6 6 5 5 5 4 4 4 3 3 3 3 3 3 3 3 3 4 4 4 4 4 4 5 5 5 5 5 5 6 6 6 6
5 5 5 5 5 6 6 6 6 6 6 6 6 5 5 4 4 4 3 3 3 3 3 3 3 3 3 3 3 3 3 3 4 4 4 4 4 4 4 4 4 5 5 5
5 5 3 4 5 6 6 6 6 6 6 5 5 5 4 4 4 4 4 3 3 3 3 3 3 3 3 3 3 3 3 3 3 3 3 3 3 3 3 3 3 3 3 4
5 5 4 4 4 5 6 6 6 6 5 5 5 4 4 4 3 3 3 3 3 3 3 2 2 2 2 2 2 2 2 2 2 2 2 2 2 2 2 2 2 2 2 3
5 4 4 4 5 6 7 6 6 6 5 5 5 4 4 3 2 2 3 3 3 2 2 2 2 2 2 1 1 1 1 1 1 1 1 1 1 1 1 1 1 1 1 2
5 4 4 4 4 4 5 5 6 5 5 5 5 5 4 3 3 3 3 3 2 2 2 1 1 1 1 1 1 1 1 0 0 0 0 0 0 0 0 0 0 0 0 1
4 4 3 3 4 5 5 4 4 5 5 5 5 5 4 4 3 3 2 2 2 1 1 1 1 0 0 -0 -0 -0 -0 -1 -1 -1 -1 -1 -1 -1 -1 -1 -1 -1 -1 -1
3 3 3 3 4 5 5 5 6 6 5 5 5 5 4 3 3 2 2 2 1 1 1 0 0 -0 -0 -1 -1 -1 -1 -2 -2 -2 -1 -2 -2 -2 -2 -2 -2 -2 -2 -2
3 3 3 3 3 4 5 6 6 6 5 5 5 4 3 3 2 2 1 1 1 0 0 -0 -1 -1 -1 -1 -2 -2 -2 -2 -2 -2 -2 -2 -2 -2 -2 -3 -3 -3 -3 -3
2 3 2 2 3 4 5 5 5 5 5 4 4 3 3 2 2 1 1 1 0 -0 -1 -1 -1 -2 -2 -2 -2 -2 -3 -3 -3 -3 -3 -3 -4 -4 -4 -4 -4 -4 -4 -4
1 2 2 3 4 3 5 5 5 5 4 4 3 3 2 2 1 1 0 -0 -1 -1 -1 -2 -2 -2 -2 -3 -3 -3 -4 -4 -4 -4 -4 -4 -4 -4 -5 -5 -4 -4 -5 -5
Wind_Speed
3 2 4 7 8 7 5 6 10 11 8 7 10 15 16 12 10 11 10 9 10 10 10 8 7 7 6 5 6 6 6 6 6 5 6 6 7 6 6 6 8 11 11 13
2 5 8 7 7 8 8 9 10 10 5 5 9 14 13 10 8 8 8 7 8 8 6 5 4 4 6 6 6 6 7 6 6 6 5 4 4 5 5 6 8 10 11 11
4 4 4 5 6 6 8 8 7 8 8 5 6 8 6 6 5 6 5 4 4 5 5 4 2 3 4 5 5 5 6 6 7 7 5 4 3 3 5 6 7 9 10 10
4 5 4 4 5 5 6 6 7 7 5 4 2 5 7 8 8 8 8 6 5 5 4 3 1 1 2 3 3 3 4 4 5 7 7 7 6 6 6 7 7 8 9 10
3 2 2 3 4 4 6 6 6 5 3 4 2 2 6 8 9 11 10 9 6 6 5 4 3 1 1 0 1 1 2 2 3 4 6 6 5 5 4 4 7 8 8 9
3 2 2 3 3 4 4 4 3 1 0 2 3 1 5 6 9 11 11 11 9 7 7 7 6 5 4 3 3 2 2 2 2 3 3 4 5 4 5 6 7 7 6 6
2 2 2 2 2 2 1 2 3 4 2 2 2 1 3 7 8 7 9 10 10 10 9 10 10 8 7 6 4 3 3 3 2 2 2 2 4 4 5 6 7 7 6 5
1 3 3 2 2 1 2 1 1 0 2 3 3 2 3 6 8 8 9 9 10 11 11 11 10 9 8 7 6 5 5 5 4 3 1 0 1 2 2 4 5 6 6 6
0 2 3 3 3 1 1 1 2 2 1 1 3 3 2 7 9 11 11 12 12 11 11 11 11 11 10 10 9 8 7 7 6 5 4 3 2 0 2 2 2 3 4 4
1 1 4 2 1 2 3 2 1 0 0 1 2 3 4 7 9 9 10 11 11 11 11 12 11 11 11 11 10 10 9 8 6 5 4 4 4 3 2 2 1 1 2 2
0 1 3 2 1 2 2 1 0 0 1 1 1 3 3 3 4 6 7 9 9 10 11 11 10 11 11 12 12 11 10 10 10 8 6 6 5 5 4 4 3 1 0 1
0 2 1 3 3 2 1 1 0 1 1 1 2 2 3 2 3 5 6 7 8 9 9 9 9 10 11 11 12 12 11 11 10 9 8 7 6 6 6 5 4 3 1 0
1 3 2 5 5 5 3 4 1 2 2 2 2 1 3 4 5 5 5 6 6 7 8 9 9 10 10 10 10 10 10 10 10 9 8 8 8 7 6 6 5 4 3 2
3 3 3 3 3 3 4 5 4 3 2 1 1 2 1 2 2 3 3 4 5 6 7 7 8 9 9 9 9 9 10 10 9 9 9 9 9 8 7 6 5 5 4 3
3 2 1 2 2 0 1 4 4 3 2 3 3 2 2 2 1 1 1 3 5 6 7 7 7 7 8 9 9 9 9 9 9 9 9 9 8 8 8 7 6 6 5 5
3 2 3 3 3 2 2 4 3 2 2 3 2 1 1 2 2 2 2 3 3 4 5 6 7 7 8 8 7 8 8 8 7 8 8 8 8 8 8 8 7 7 7 6
2 2 2 3 5 3 3 3 0 1 0 3 3 3 3 3 2 1 1 1 2 3 4 5 5 6 6 6 6 6 6 7 7 7 8 8 8 8 8 7 7 7 6 6
1 2 2 1 3 2 4 1 1 2 1 1 2 3 4 4 2 1 1 1 1 2 3 4 4 5 5 5 6 6 6 6 7 7 8 8 8 7 7 7 7 6 5 5
2 3 2 1 1 4 5 2 2 2 2 2 4 3 3 3 2 2 1 1 1 1 1 2 3 3 4 5 5 5 6 6 7 7 7 7 7 7 7 7 7 6 5 6
3 4 3 2 1 4 4 2 1 2 3 3 4 5 4 4 1 3 2 0 0 1 1 2 3 3 4 5 5 5 6 6 7 7 7 7 6 7 7 7 6 5 5 6
1 2 2 2 3 6 4 2 3 3 5 3 5 5 5 5 5 3 1 0 0 1 2 2 3 3 4 5 5 5 6 6 7 7 6 7 7 7 7 6 6 6 6 6
4 3 3 3 3 6 3 5 6 6 2 3 4 4 4 4 2 2 1 0 1 2 3 3 3 4 5 5 5 6 7 7 7 7 7 7 7 7 7 7 7 7 6 7
5 7 5 7 7 4 4 6 4 4 4 4 4 4 5 3 3 2 2 1 2 2 3 3 3 5 5 5 5 6 8 7 7 7 8 8 8 7 7 6 7 7 6 6
4 3 3 4 6 5 5 4 3 4 5 4 5 5 5 4 3 2 2 2 2 3 3 3 4 5 6 6 6 6 8 8 7 8 9 8 8 8 7 6 6 6 6 6
6 4 4 5 6 4 5 6 5 4 4 4 4 4 4 4 3 3 2 2 3 3 3 3 4 6 7 7 7 7 7 7 7 8 8 8 8 8 8 7 7 7 7 8
6 8 8 8 8 6 6 5 6 7 6 6 5 3 3 4 3 2 2 2 2 3 4 4 5 6 7 7 8 8 7 7 8 8 8 7 7 7 8 8 9 11 12 16
Wind_Direction
151 129 214 221 216 228 257 269 280 281 280 286 278 284 291 295 287 275 269 264 266 268 269 260 233 205 195 195 188 191 194 192 179 176 189 197 197 194 197 199 192 187 187 187
131 239 240 237 239 245 259 275 282 292 294 286 282 285 286 289 284 278 277 273 273 277 286 271 226 201 191 193 191 196 198 193 186 183 185 195 187 184 196 202 197 194 190 188
199 243 242 232 246 252 260 252 265 280 306 284 293 306 318 321 320 327 322 295 295 293 290 294 254 218 202 199 198 208 198 197 191 184 174 176 176 174 194 203 201 196 192 190
235 260 250 244 254 237 265 253 260 278 304 309 333 313 324 334 347 357 351 347 341 335 340 334 296 238 230 226 200 200 197 200 191 182 180 180 186 195 204 203 202 196 190 189
237 250 234 241 251 227 246 274 269 270 275 303 292 245 313 341 355 354 355 357 357 356 3 5 359 355 4 128 126 148 160 168 171 180 184 177 187 200 197 194 200 200 194 191
247 252 227 236 269 238 266 305 289 260 99 310 291 187 327 349 343 342 358 5 9 13 21 21 17 27 27 30 46 69 112 113 130 160 175 181 183 187 190 191 203 201 196 194
325 299 266 232 309 319 351 18 15 11 8 291 312 111 326 344 351 356 7 11 18 24 28 29 27 26 24 30 38 55 74 75 78 121 149 191 194 190 200 199 200 196 194 196
15 319 264 226 224 267 271 151 129 310 297 310 359 11 326 355 12 22 25 24 26 31 33 32 28 27 27 30 39 50 54 46 39 47 59 147 202 202 212 211 195 191 196 196
155 291 276 237 224 201 287 255 207 179 274 346 346 342 332 5 18 24 24 26 27 28 30 30 29 29 28 32 35 39 45 38 28 27 24 27 13 295 221 183 183 189 190 190
198 283 293 302 22 288 232 244 69 96 11 13 350 352 339 347 4 17 24 27 26 26 29 29 29 27 27 29 30 33 35 33 25 27 32 26 16 16 28 55 151 190 179 178
165 107 320 351 323 297 318 334 331 163 159 128 8 322 339 355 11 26 30 31 32 33 30 28 26 25 25 24 26 29 27 27 23 22 26 24 14 21 35 39 21 19 70 184
234 118 317 291 282 246 240 291 206 127 352 73 128 300 354 58 50 48 42 34 33 35 31 29 26 25 26 25 25 25 23 24 19 17 23 20 14 20 26 22 16 16 3 261
71 87 27 350 345 358 351 327 328 137 102 94 124 279 18 59 59 52 50 37 32 34 33 29 27 26 24 23 22 22 21 19 17 18 22 23 19 20 18 12 9 12 6 350
98 80 142 182 249 292 328 339 2 91 99 100 179 180 47 65 61 43 46 42 35 33 31 28 24 20 19 20 20 19 18 17 17 17 21 22 16 13 10 8 8 6 2 353
84 72 347 263 273 252 346 346 16 61 122 152 175 169 206 190 157 67 46 43 37 32 27 24 21 16 15 16 17 17 16 13 15 18 20 15 9 9 9 7 2 360 1 352
49 71 18 348 355 20 4 352 10 35 66 119 131 226 198 137 106 65 48 49 35 20 16 15 14 13 11 10 10 10 8 6 12 17 12 6 5 5 4 1 358 358 355 350
19 63 44 309 316 5 325 294 302 59 345 175 203 216 158 140 152 178 152 59 22 358 360 5 2 358 355 356 360 1 357 0 10 9 5 3 2 360 355 354 357 353 348 344
117 82 109 337 22 273 258 271 184 147 318 222 169 159 163 166 156 125 160 155 346 351 357 351 348 347 345 348 353 352 355 -0 3 0 358 355 353 349 346 348 346 341 336 331
152 139 109 91 314 279 288 254 181 178 279 256 178 168 153 135 83 351 309 187 206 274 307 310 321 329 338 342 343 350 353 352 354 350 345 342 342 340 341 341 335 329 328 324
64 93 116 137 221 245 251 197 142 97 277 242 175 174 168 144 202 262 244 265 351 348 331 326 333 344 341 332 336 347 340 342 338 332 329 330 333 334 331 326 320 317 315 310
9 38 135 189 238 265 248 174 115 170 244 187 168 175 169 185 208 219 182 152 350 328 324 336 343 337 324 325 336 334 329 323 315 315 319 324 325 322 318 317 315 316 314 311
195 190 207 182 221 260 204 146 183 214 180 161 165 171 170 184 177 169 173 216 325 332 331 334 333 323 321 327 334 327 319 312 315 317 318 317 316 316 319 316 315 314 313 310
206 196 196 199 220 246 205 202 211 168 169 180 174 176 162 168 191 201 213 242 286 298 307 315 316 315 318 322 324 316 312 314 317 317 313 309 308 307 306 305 306 308 306 303
268 192 193 251 257 241 233 226 202 179 179 176 166 163 162 179 197 212 231 261 286 296 300 308 314 316 315 316 314 304 309 315 315 312 309 308 307 306 304 300 297 297 298 297
237 201 208 249 261 268 254 218 198 176 160 150 151 162 172 176 199 212 234 263 279 292 299 306 305 304 305 310 309 307 309 313 308 304 304 305 304 302 302 298 291 292 282 284
209 194 194 228 220 200 227 208 177 170 178 173 164 164 170 178 194 203 233 263 282 295 304 307 305 303 304 308 307 308 311 311 307 306 304 302 300 299 298 299 299 293 291 294
Height
1490 1494 1494 1493 1492 1492 1491 1490 1488 1482 1476 1475 1471 1465 1458 1454 1453 1449 1447 1445 1444 1442 1442 1443 1444 1446 1447 1450 1451 1453 1455 1457 1459 1462 1464 1466 1469 1471 1475 1478 1481 1485 1489 1493
1492 1492 1488 1488 1489 1489 1489 1489 1486 1479 1473 1472 1468 1463 1455 1451 1449 1446 1444 1442 1441 1439 1439 1439 1440 1441 1443 1445 1447 1450 1451 1453 1455 1457 1460 1462 1465 1467 1471 1474 1478 1481 1484 1488
1490 1488 1485 1486 1486 1487 1486 1486 1483 1480 1474 1469 1468 1461 1454 1449 1446 1443 1441 1439 1438 1437 1436 1436 1437 1438 1440 1442 1444 1446 1447 1449 1451 1453 1456 1459 1460 1463 1467 1470 1473 1476 1479 1483
1487 1485 1484 1484 1484 1484 1484 1478 1477 1475 1477 1474 1471 1469 1457 1452 1447 1443 1441 1439 1437 1436 1435 1434 1435 1436 1437 1438 1440 1442 1444 1446 1448 1450 1452 1454 1456 1459 1462 1465 1468 1471 1474 1478
1485 1483 1482 1482 1481 1480 1479 1475 1475 1474 1475 1476 1471 1472 1464 1455 1450 1447 1444 1440 1438 1436 1434 1434 1434 1434 1435 1435 1437 1438 1441 1443 1445 1447 1449 1451 1453 1456 1459 1461 1463 1466 1469 1473
1483 1482 1481 1480 1478 1477 1476 1475 1473 1474 1476 1477 1470 1472 1468 1461 1457 1451 1446 1443 1439 1437 1436 1434 1434 1433 1434 1434 1435 1437 1439 1441 1442 1444 1446 1448 1449 1452 1455 1457 1459 1461 1465 1468
1484 1481 1479 1479 1478 1476 1476 1479 1482 1481 1482 1476 1468 1469 1469 1462 1458 1454 1450 1446 1443 1440 1437 1436 1435 1434 1434 1434 1435 1436 1438 1439 1441 1442 1443 1445 1447 1449 1451 1453 1455 1457 1460 1463
1486 1486 1479 1477 1477 1477 1476 1479 1483 1482 1480 1475 1469 1469 1469 1464 1461 1457 1453 1450 1446 1444 1442 1440 1438 1437 1436 1436 1436 1436 1437 1438 1439 1440 1441 1443 1444 1446 1448 1450 1451 1453 1456 1459
1484 1483 1476 1475 1474 1475 1475 1477 1476 1480 1477 1477 1473 1471 1468 1465 1462 1459 1456 1453 1450 1448 1446 1443 1441 1440 1438 1437 1437 1438 1438 1439 1439 1439 1441 1441 1442 1444 1445 1446 1448 1450 1452 1455
1481 1482 1477 1474 1474 1474 1475 1474 1478 1478 1476 1473 1473 1474 1472 1468 1466 1463 1460 1458 1455 1452 1449 1447 1445 1443 1442 1440 1440 1439 1440 1440 1440 1440 1440 1440 1441 1441 1442 1443 1445 1447 1449 1451
1479 1483 1480 1477 1476 1475 1474 1474 1474 1476 1475 1476 1477 1479 1472 1471 1469 1467 1465 1463 1460 1457 1454 1452 1450 1447 1445 1443 1442 1441 1441 1441 1440 1440 1440 1440 1440 1440 1440 1441 1442 1443 1445 1447
1479 1483 1483 1478 1473 1472 1472 1472 1473 1476 1477 1479 1481 1483 1473 1472 1471 1470 1468 1466 1464 1462 1459 1456 1454 1451 1448 1446 1445 1444 1443 1443 1442 1441 1440 1440 1439 1439 1439 1440 1440 1441 1443 1445
1478 1483 1487 1483 1481 1476 1474 1471 1470 1472 1478 1482 1483 1482 1475 1474 1473 1472 1471 1469 1467 1465 1462 1459 1457 1454 1452 1450 1448 1447 1446 1445 1444 1442 1441 1440 1439 1439 1439 1439 1439 1440 1440 1441
1477 1483 1488 1487 1483 1479 1477 1473 1470 1473 1479 1479 1478 1477 1476 1475 1475 1474 1472 1471 1469 1467 1465 1462 1460 1458 1456 1453 1451 1450 1448 1446 1445 1444 1442 1440 1439 1438 1438 1438 1438 1438 1438 1438
1479 1484 1482 1481 1479 1478 1477 1475 1473 1473 1474 1477 1476 1476 1476 1476 1475 1475 1473 1472 1470 1468 1467 1465 1462 1460 1458 1456 1454 1452 1450 1448 1446 1444 1442 1441 1440 1438 1437 1437 1436 1436 1435 1435
1481 1483 1483 1482 1479 1478 1478 1476 1475 1474 1474 1475 1476 1477 1475 1475 1475 1475 1474 1473 1471 1470 1468 1466 1464 1462 1460 1458 1456 1454 1452 1450 1447 1445 1443 1441 1440 1438 1436 1435 1434 1434 1433 1432
1484 1485 1487 1489 1483 1479 1482 1478 1476 1475 1475 1475 1476 1476 1475 1476 1476 1475 1475 1473 1472 1471 1469 1468 1466 1464 1461 1459 1457 1455 1452 1450 1448 1445 1443 1441 1439 1437 1435 1434 1432 1431 1430 1429
1485 1487 1492 1491 1487 1486 1481 1476 1475 1475 1475 1474 1474 1474 1474 1475 1475 1475 1475 1474 1473 1472 1470 1468 1467 1465 1463 1460 1458 1455 1453 1450 1448 1445 1442 1440 1438 1436 1434 1432 1430 1428 1427 1426
1483 1486 1491 1493 1492 1485 1479 1475 1475 1476 1476 1474 1474 1474 1475 1475 1476 1476 1475 1474 1473 1472 1471 1469 1467 1465 1463 1460 1458 1455 1453 1450 1447 1444 1442 1439 1437 1434 1432 1429 1427 1425 1424 1422
1484 1486 1491 1492 1487 1483 1475 1474 1473 1476 1477 1473 1472 1473 1474 1475 1478 1477 1474 1473 1472 1471 1470 1468 1466 1464 1461 1459 1457 1454 1451 1449 1446 1443 1440 1438 1435 1432 1430 1427 1425 1422 1420 1418
1487 1489 1492 1491 1490 1482 1474 1473 1475 1481 1475 1471 1471 1472 1472 1473 1474 1474 1473 1472 1471 1470 1469 1467 1465 1462 1460 1457 1455 1452 1449 1447 1444 1441 1438 1435 1432 1430 1427 1424 1422 1419 1416 1414
1487 1489 1490 1491 1489 1483 1471 1472 1475 1472 1469 1469 1470 1471 1471 1471 1471 1471 1471 1471 1470 1468 1467 1465 1463 1460 1458 1455 1452 1449 1447 1444 1441 1438 1435 1432 1429 1426 1423 1420 1417 1415 1412 1409
1483 1483 1482 1482 1479 1471 1468 1468 1468 1468 1468 1468 1469 1469 1470 1470 1470 1470 1469 1469 1468 1466 1464 1462 1460 1458 1455 1453 1450 1446 1444 1440 1437 1434 1431 1428 1425 1422 1419 1416 1412 1410 1407 1405
1478 1475 1477 1476 1470 1467 1466 1466 1466 1466 1466 1467 1468 1468 1468 1468 1468 1468 1467 1466 1465 1464 1462 1460 1457 1455 1452 1450 1447 1444 1441 1437 1434 1430 1427 1424 1420 1417 1414 1411 1408 1405 1402 1400
1474 1473 1474 1472 1466 1464 1462 1462 1463 1464 1465 1465 1466 1466 1466 1466 1466 1465 1465 1463 1462 1461 1459 1457 1454 1451 1449 1446 1443 1440 1437 1433 1430 1426 1423 1419 1416 1412 1409 1406 1403 1400 1398 1396
1466 1466 1468 1465 1460 1460 1459 1459 1461 1461 1462 1463 1464 1464 1464 1464 1463 1463 1462 1461 1459 1457 1455 1453 1451 1448 1445 1442 1439 1436 1433 1430 1426 1422 1418 1414 1411 1407 1404 1400 1397 1394 1393 1390